Weather reports worldwide

Advertisment
Messina, Italy (16420): temperature & dewpoint: 18.04.2018 06:00:00 - 24.04.2018 06:00:00 (CEST)Messina, Italy (16420): wind speed: 18.04.2018 06:00:00 - 24.04.2018 06:00:00 (CEST)Messina, Italy (16420): wind direction: 18.04.2018 06:00:00 - 24.04.2018 06:00:00 (CEST)Messina, Italy (16420): reduced air pressure: 18.04.2018 06:00:00 - 24.04.2018 06:00:00 (CEST)Messina, Italy (16420): visibility: 18.04.2018 06:00:00 - 24.04.2018 06:00:00 (CEST)Messina, Italy (16420): sunshine duration: 18.04.2018 06:00:00 - 24.04.2018 06:00:00 (CEST)
Date & Time tt [°C] td [°C] ff [km/h] ff [kn] dd ppp [hPa] vv [km] sd [min]
24.04.2018 06:00:00 17,0 14,8 13 7 NE 1018,9 12 -
24.04.2018 05:00:00 17,2 13,7 11 6 NNE 1018,9 12 -
24.04.2018 04:00:00 17,4 12,3 13 7 NNE 1018,8 12 -
24.04.2018 03:00:00 17,4 11,4 11 6 NE 1018,9 12 -
24.04.2018 02:00:00 17,6 12,7 9 5 NNE 1019,4 12 -
24.04.2018 01:00:00 17,6 14,7 11 6 NE 1019,4 12 -
24.04.2018 00:00:00 17,8 15,4 11 6 NE 1019,4 12 -
23.04.2018 23:00:00 18,0 15,6 13 7 NE 1019,4 12 -
23.04.2018 22:00:00 18,4 15,8 5 3 NNE 1019,4 12 -
23.04.2018 21:00:00 18,8 15,5 8 4 NNE 1019,3 12 -
23.04.2018 20:00:00 19,0 16,2 9 5 NNE 1018,5 15 0
23.04.2018 19:00:00 20,0 17,0 16 9 NE 1018,4 18 48
23.04.2018 18:00:00 21,4 14,3 13 7 NNE 1018,3 18 60
23.04.2018 17:00:00 23,0 16,1 13 7 NNE 1018,1 18 60
23.04.2018 16:00:00 22,0 11,4 9 5 ENE 1018,3 18 60
23.04.2018 15:00:00 23,0 10,8 15 8 SSE 1018,6 18 60
23.04.2018 14:00:00 22,6 11,1 11 6 N 1019,2 15 60
23.04.2018 13:00:00 21,6 11,3 11 6 N 1019,4 15 60
23.04.2018 12:00:00 21,0 12,2 16 9 N 1019,5 15 60
23.04.2018 11:00:00 19,6 12,6 16 9 N 1019,4 15 60
23.04.2018 10:00:00 19,4 15,1 15 8 N 1019,5 12 60
23.04.2018 09:00:00 18,2 13,9 11 6 NNW 1019,4 12 60
23.04.2018 08:00:00 17,0 13,9 9 5 NW 1019,2 12 24
23.04.2018 07:00:00 17,0 14,3 8 4 NNW 1018,9 12 0
23.04.2018 06:00:00 17,0 14,7 8 4 NNW 1018,9 12 -
23.04.2018 05:00:00 17,0 14,5 13 7 WNW 1019,1 12 -
23.04.2018 04:00:00 16,8 14,4 9 5 NE 1018,9 12 -
23.04.2018 03:00:00 16,8 14,8 8 4 NNE 1019,1 12 -
23.04.2018 02:00:00 17,2 15,0 13 7 NE 1019,1 12 -
23.04.2018 01:00:00 17,4 14,3 16 9 NE 1019,1 14 -
23.04.2018 00:00:00 17,4 12,5 9 5 NE 1019,1 16 -
22.04.2018 23:00:00 17,6 13,9 9 5 NNE 1019,0 14 -
22.04.2018 22:00:00 18,0 14,7 8 4 NNE 1018,7 12 -
22.04.2018 21:00:00 18,0 14,1 5 3 NNE 1018,5 12 -
22.04.2018 20:00:00 18,6 16,0 5 3 NNE 1018,5 12 -
22.04.2018 19:00:00 18,8 15,3 5 3 E 1018,5 12 0
22.04.2018 18:00:00 18,0 16,0 5 3 WSW 1018,6 12 0
22.04.2018 17:00:00 18,6 16,4 11 6 SSW 1018,5 10 24
22.04.2018 16:00:00 18,2 15,3 5 3 SSW 1018,6 12 6
22.04.2018 15:00:00 18,0 15,6 8 4 SSW 1019,3 10 0
22.04.2018 14:00:00 18,8 15,3 13 7 SSW 1019,3 12 42
22.04.2018 13:00:00 18,2 15,3 11 6 SSW 1019,4 12 6
22.04.2018 12:00:00 18,0 15,1 11 6 SSW 1019,4 12 42
22.04.2018 11:00:00 18,0 14,5 11 6 SSW 1019,4 12 0
22.04.2018 10:00:00 17,8 13,3 16 9 SSW 1019,4 10 60
22.04.2018 09:00:00 16,8 12,5 9 5 SSW 1019,2 10 60
22.04.2018 08:00:00 15,6 12,0 4 2 SSE 1018,7 12 48
22.04.2018 07:00:00 15,0 12,3 2 1 W 1018,6 12 -
22.04.2018 06:00:00 15,4 12,5 0 0 N 1018,6 12 -
22.04.2018 05:00:00 15,8 12,9 0 0 N 1018,7 12 -
22.04.2018 04:00:00 16,0 13,1 0 0 N 1018,8 12 -
22.04.2018 03:00:00 16,0 13,3 4 2 NNW 1019,1 12 -
22.04.2018 02:00:00 16,2 13,3 0 0 N 1019,5 12 -
22.04.2018 01:00:00 16,8 13,5 4 2 NNW 1019,5 12 -
22.04.2018 00:00:00 17,0 13,1 2 1 SW 1019,5 12 -
21.04.2018 23:00:00 17,4 13,1 0 0 N 1019,3 10 -
21.04.2018 22:00:00 17,8 12,5 4 2 NNW 1019,2 14 -
21.04.2018 21:00:00 18,8 12,3 0 0 N 1018,6 16 -
21.04.2018 20:00:00 19,2 11,8 4 2 WSW 1018,6 18 0
21.04.2018 19:00:00 19,4 11,9 4 2 SE 1018,6 18 30
21.04.2018 18:00:00 20,0 12,7 5 3 SE 1018,7 18 60
21.04.2018 17:00:00 20,4 13,8 9 5 SE 1018,6 16 60
21.04.2018 16:00:00 21,6 14,3 9 5 NE 1018,6 16 60
21.04.2018 15:00:00 21,6 14,0 16 9 NE 1018,7 16 60
21.04.2018 14:00:00 21,6 13,5 16 9 NE 1018,8 16 60
21.04.2018 13:00:00 20,4 13,8 21 11 NE 1019,0 16 60
21.04.2018 12:00:00 20,0 13,7 22 12 NE 1018,9 16 60
21.04.2018 11:00:00 19,6 13,3 21 11 NE 1018,7 10 60
21.04.2018 10:00:00 18,6 13,2 21 11 NE 1018,4 16 60
21.04.2018 09:00:00 17,4 13,1 15 8 NE 1018,4 16 60
21.04.2018 08:00:00 16,6 13,3 9 5 NNE 1018,4 16 48
21.04.2018 07:00:00 16,2 12,7 13 7 NE 1018,3 16 0
21.04.2018 06:00:00 16,2 12,9 11 6 NE 1018,3 12 -
21.04.2018 05:00:00 16,2 10,9 8 4 NE 1018,5 12 -
21.04.2018 04:00:00 16,2 11,8 9 5 NE 1018,7 12 -
21.04.2018 03:00:00 16,2 12,2 8 4 N 1018,8 12 -
21.04.2018 02:00:00 17,0 12,7 11 6 ENE 1019,2 12 -
21.04.2018 01:00:00 17,0 13,5 8 4 NNE 1019,4 12 -
21.04.2018 00:00:00 17,0 15,0 11 6 NNE 1019,3 12 -
20.04.2018 23:00:00 17,2 13,9 9 5 NE 1019,3 12 -
20.04.2018 22:00:00 17,0 13,9 11 6 NNE 1019,2 12 -
20.04.2018 21:00:00 17,0 14,7 9 5 NNE 1018,7 12 -
20.04.2018 20:00:00 17,8 14,5 8 4 NNE 1018,5 12 0
20.04.2018 19:00:00 19,2 13,4 9 5 N 1018,4 12 36
20.04.2018 18:00:00 20,8 13,5 9 5 N 1018,4 12 60
20.04.2018 17:00:00 21,0 11,9 13 7 N 1018,4 12 60
20.04.2018 16:00:00 20,4 14,3 15 8 ENE 1018,8 10 60
20.04.2018 15:00:00 20,4 14,1 15 8 NE 1019,3 10 60
20.04.2018 14:00:00 20,0 14,1 21 11 NE 1019,4 10 60
20.04.2018 13:00:00 20,0 14,4 21 11 NE 1019,6 10 60
20.04.2018 12:00:00 19,2 14,0 24 13 NE 1019,8 10 60
20.04.2018 11:00:00 18,2 13,7 22 12 NE 1020,3 4,0 60
20.04.2018 10:00:00 17,8 13,7 15 8 NE 1020,5 7 60
20.04.2018 09:00:00 17,0 13,5 13 7 NNE 1020,5 7 60
20.04.2018 08:00:00 16,0 13,3 13 7 NE 1020,5 10 12
20.04.2018 07:00:00 15,4 13,4 13 7 NE 1020,5 12 0
20.04.2018 06:00:00 15,4 13,6 9 5 NNE 1020,6 12 -
20.04.2018 05:00:00 15,4 13,6 8 4 E 1020,8 12 -
20.04.2018 04:00:00 15,4 13,8 8 4 E 1021,4 12 -
20.04.2018 03:00:00 15,4 13,6 5 3 NE 1021,5 12 -
20.04.2018 02:00:00 15,6 13,6 4 2 SW 1021,8 12 -
20.04.2018 01:00:00 16,0 14,4 2 1 ENE 1022,2 12 -
20.04.2018 00:00:00 16,0 14,4 5 3 ENE 1022,2 12 -
19.04.2018 23:00:00 16,4 14,9 4 2 WSW 1022,4 10 -
19.04.2018 22:00:00 17,0 15,2 8 4 NE 1022,4 12 -
19.04.2018 21:00:00 17,2 15,0 5 3 NE 1022,3 12 -
19.04.2018 20:00:00 17,8 15,1 8 4 ENE 1021,8 12 -
19.04.2018 19:00:00 18,4 13,9 8 4 ENE 1021,5 12 24
19.04.2018 18:00:00 18,8 14,1 5 3 E 1022,2 12 60
19.04.2018 17:00:00 18,8 14,3 8 4 E 1022,3 12 60
19.04.2018 16:00:00 18,8 14,5 13 7 ENE 1022,5 12 60
19.04.2018 15:00:00 19,8 14,4 16 9 ENE 1022,5 12 60
19.04.2018 14:00:00 20,2 13,9 16 9 ENE 1022,5 12 60
19.04.2018 13:00:00 20,2 13,7 18 10 ENE 1022,8 10 60
19.04.2018 12:00:00 20,0 13,5 16 9 ENE 1023,3 10 60
19.04.2018 11:00:00 18,2 13,1 13 7 NNE 1023,3 10 12
19.04.2018 10:00:00 17,8 12,3 15 8 NNW 1023,0 8 42
19.04.2018 09:00:00 17,0 13,7 18 10 NE 1022,5 8 54
19.04.2018 08:00:00 16,0 13,5 11 6 NE 1022,5 8 0
19.04.2018 07:00:00 15,8 13,7 9 5 NNE 1022,5 9 -
19.04.2018 06:00:00 15,8 13,3 8 4 NNE 1022,5 10 -
19.04.2018 05:00:00 15,8 12,4 8 4 NE 1022,7 10 -
19.04.2018 04:00:00 16,0 11,8 4 2 N 1022,7 10 -
19.04.2018 03:00:00 16,2 12,0 8 4 NNW 1023,2 10 -
19.04.2018 02:00:00 16,2 10,9 9 5 NNW 1023,3 10 -
19.04.2018 01:00:00 16,0 11,8 9 5 NNE 1023,3 10 -
19.04.2018 00:00:00 16,2 11,6 9 5 N 1023,1 10 -
18.04.2018 23:00:00 16,2 11,6 8 4 N 1022,9 10 -
18.04.2018 22:00:00 16,0 14,2 5 3 NE 1022,7 10 -
18.04.2018 21:00:00 16,8 14,8 4 2 N 1022,5 10 -
18.04.2018 20:00:00 17,4 14,1 4 2 W 1021,7 10 -
18.04.2018 19:00:00 17,6 14,1 5 3 N 1021,9 10 0
18.04.2018 18:00:00 17,6 14,5 8 4 SW 1022,1 10 0
18.04.2018 17:00:00 18,0 14,5 11 6 WSW 1022,0 10 0
18.04.2018 16:00:00 18,0 14,5 15 8 SSW 1021,9 10 6
18.04.2018 15:00:00 17,8 15,1 9 5 SSW 1021,9 10 6
18.04.2018 14:00:00 18,8 14,1 18 10 SSW 1021,9 10 24
18.04.2018 13:00:00 19,0 14,1 15 8 SSW 1021,9 10 60
18.04.2018 12:00:00 19,4 9,9 5 3 E 1021,7 14 60
18.04.2018 11:00:00 18,4 11,0 5 3 E 1021,4 10 60
18.04.2018 10:00:00 18,2 10,3 5 3 E 1021,3 14 60
18.04.2018 09:00:00 15,8 10,8 4 2 ENE 1021,2 14 60
18.04.2018 08:00:00 14,2 9,8 2 1 NNW 1021,1 12 0
18.04.2018 07:00:00 13,4 10,2 0 0 N 1020,6 12 0
18.04.2018 06:00:00 13,4 10,9 2 1 NW 1020,5 12 -

tt = temperature
td = dewpoint
ff = wind speed
dd = wind direction
ppp = reduced air pressure
vv = visibility
sd = sunshine duration

Next stations